Regional Weather Roundup
Issued by NWS New Orleans/Baton Rouge, LA

Home | Current Version | Previous Version | Text Only | Print | Product List | Glossary On
Versions: 1 2 3 4 5 6 7 8 9 10 11 12 13 14 15 16 17 18 19 20 21 22 23 24 25 26 27 28 29 30 31 32 33 34 35 36 37 38 39 40 41 42 43 44 45 46 47 48 49 50
000
ASUS44 KLIX 231010
RWRLIX
NEW ORLEANS REGIONAL WEATHER ROUNDUP
NATIONAL WEATHER SERVICE NEW ORLEANS LA
500 AM CDT WED JUL 23 2014

NOTE: "FAIR" INDICATES FEW OR NO CLOUDS BELOW 12,000 FEET WITH NO
      SIGNIFICANT WEATHER AND/OR OBSTRUCTIONS TO VISIBILITY.
      SKY/WX - SKY CONDITION AND SIGNIFICANT WEATHER.
      TMP - AIR TEMPERATURE.     DP    - DEWPOINT TEMPERATURE.
      RH  - RELATIVE HUMIDITY.   PRES  - PRESSURE.
      HI  - HEAT INDEX.          WCI   - WIND CHILL INDEX.

*  THESE STATIONS ARE NOT NWS OR FAA STATIONS AND ARE NOT UNDER
   NWS QUALITY CONTROL.

LAZ038-040-048-061>063-065>067-069-231100-
SOUTHEAST LOUISIANA

CITY           SKY/WX    TMP DP  RH WIND       PRES   REMARKS
N.O. AUDUBON     N/A     79  73  81 MISG        N/A
N.O. INTL ARPT MOCLDY    77  73  87 E3        30.02R
N.O. LAKEFRONT PTCLDY    78  74  87 E10       30.02R
N.O. DOWNTOWN*   N/A     79  70  73 E3        30.02R
SLIDELL        PTCLDY    71  68  90 CALM      30.01S
BATON ROUGE    PTCLDY    71  69  93 CALM      30.03R
BOOTHVILLE     MOCLDY    79  77  94 CALM      30.01R
BELLE CHASSE   MOCLDY    75  72  90 N3        30.01R
BOGALUSA*      FOG       69  66  90 N3        30.05R VSB 1
GALLIANO*      NOT AVBL
NEW ROADS*       N/A     72  70  95 CALM      30.04R
GONZALES*        N/A     73  73 100 CALM      30.01R
HAMMOND*       CLEAR     70  66  88 N3        30.05R
HOUMA*         MOCLDY    75  68  78 S7        30.01R
PORT FOURCHON* MOSUNNY   81  75  83 VRB6      30.02S

$$

MSZ070-080>082-231100-
SOUTHERN MISSISSIPPI

CITY           SKY/WX    TMP DP  RH WIND       PRES   REMARKS
MCCOMB         FOG       68  67  96 CALM      30.05R VSB 1/2
GULFPORT       CLEAR     72  68  87 N5        30.01S
BILOXI         CLEAR     70  69  98 NE5       30.02R
PASCAGOULA     CLEAR     70  69  97 N3        30.02S

$$

COASTAL OBSERVATIONS
LAKE AND NEARSHORE STATIONS

STATION/POSITION TIME  TEMP    WIND        PRES    WAVE
                       AIR SEA DIR/SP/G            HT/PER
                 (UTC) (F)     (DEG/KT/KT) (MB)    (FT/S)
PASCAGOULA       1000   74      10/  3/  4 1015.7
WAVELAND YACHT   1000   75      40/  5/  6 1015.7
GRAND ISLE       1000   78 84   CALM  /  1 1016.9
SOUTHWEST PASS   1000   81 85  200/  4/  7 1016.4
NEW CANAL        1000   78 82   90/  2/  3 1016.6
SHELL BEACH      1000   80 81   70/  8/ 10 1016.0

OFFSHORE STATIONS

STATION/POSITION TIME  TEMP    WIND        PRES    WAVE
                       AIR SEA DIR/SP/G            HT/PER
                 (UTC) (F)     (DEG/KT/KT) (MB)    (FT/S)
64 S DAUPHIN ISL 0935   82 83  150/  8/ 10 1016.3

$$




USA.gov is the U.S. government's official web portal to all federal, state and local government web resources and services.